Change the Weather History Date:

Thursday, March 14, 2013

  Actual Average (KALS) Record (KALS)
Temperature  
Mean Temperature - 33 °F  
Max Temperature - 50 °F 65 °F (2007)
Min Temperature - 17 °F -10 °F (1962)
Degree Days  
Heating Degree Days 32  
Month to date heating degree days 476  
Since 1 July heating degree days 6805  
Cooling Degree Days 0  
Month to date cooling degree days 0  
Year to date cooling degree days 0  
Moisture  
Dew Point -    
Average Humidity    
Maximum Humidity    
Minimum Humidity    
Precipitation  
Precipitation 0.00 in 0.02 in 0.26 in (2005)
Month to date precipitation 0.21  
Year to date precipitation 0.73  
Snow  
Snow 0.00 in 0.20 in 2.40 in (2005)
Month to date snowfall 2.1  
Since 1 July snowfall 20.2  
Snow Depth -    
Sea Level Pressure  
Sea Level Pressure 30.40 in    
Wind  
Wind Speed 18 mph (NW)    
Max Wind Speed 26 mph    
Max Gust Speed 30 mph    
Visibility 10 miles    
Events      
T = Trace of Precipitation, MM = Missing Value Source: NWS Daily Summary

Daily Weather History Graph

Daily Weather History Graph

Search for Another Location

Airport or City:

Trip Planner

Search our weather history database for the weather conditions in past years. The results will help you decide how hot, cold, wet, or windy it might be!

Date:

Astronomy

Mar. 14, 2013 Rise Set
Actual Time 7:16 AM MDT 7:11 PM MDT
Civil Twilight 6:50 AM MDT 7:37 PM MDT
Nautical Twilight 6:20 AM MDT 8:08 PM MDT
Astronomical Twilight 5:49 AM MDT 8:39 PM MDT
Moon 8:35 AM MDT (3/14) 10:26 PM MDT (3/14)
Length of Visible Light 12h 46m
Length of Day
11h 54m
Waxing Crescent, 9% of the Moon is Illuminated
Mar 14
Waxing Crescent
Mar 19
First Quarter
Mar 27
Full
Apr 2
Last Quarter
Apr 10
New

Hourly Weather History & Observations

Time (MDT) Temp. Dew Point Humidity Pressure Visibility Wind Dir Wind Speed Gust Speed Precip Events Conditions
12:15 AM - - N/A% 30.39 in 10.0 mi NW 25.3 mph 29.9 mph N/A   Clear
12:55 AM - - N/A% 30.39 in 10.0 mi NW 19.6 mph 25.3 mph N/A   Clear
1:15 AM - - N/A% 30.39 in 10.0 mi NW 26.5 mph - N/A   Clear
1:36 AM - - N/A% 30.40 in 10.0 mi NW 25.3 mph - N/A   Clear
1:54 AM - - N/A% 30.41 in 10.0 mi NW 20.7 mph - N/A   Clear
2:16 AM - - N/A% 30.42 in 10.0 mi NW 18.4 mph 23.0 mph N/A   Clear
2:34 AM - - N/A% 30.42 in 10.0 mi NW 18.4 mph 23.0 mph N/A   Clear
2:55 AM - - N/A% 30.42 in 10.0 mi NW 18.4 mph 25.3 mph N/A   Clear
3:15 AM - - N/A% 30.41 in 10.0 mi NW 16.1 mph 23.0 mph N/A   Clear
3:34 AM - - N/A% 30.41 in 10.0 mi NNW 15.0 mph 21.9 mph N/A   Clear
3:55 AM - - N/A% 30.40 in 10.0 mi NW 19.6 mph - N/A   Clear
4:15 AM - - N/A% 30.41 in 10.0 mi NW 19.6 mph - N/A   Clear
4:34 AM - - N/A% 30.41 in 10.0 mi NW 18.4 mph - N/A   Clear
4:54 AM - - N/A% 30.41 in 10.0 mi NW 16.1 mph - N/A   Clear
5:15 AM - - N/A% 30.41 in 10.0 mi NW 17.3 mph - N/A   Clear
5:35 AM - - N/A% 30.41 in 10.0 mi NW 13.8 mph - N/A   Clear
5:55 AM - - N/A% 30.42 in 10.0 mi NW 13.8 mph - N/A   Clear
6:15 AM - - N/A% 30.42 in 10.0 mi NNW 15.0 mph - N/A   Clear
6:35 AM - - N/A% 30.43 in 10.0 mi NNW 12.7 mph - N/A   Clear
6:55 AM - - N/A% 30.44 in 10.0 mi NW 10.4 mph - N/A   Clear
7:15 AM - - N/A% 30.44 in 10.0 mi NNW 13.8 mph - N/A   Clear
7:34 AM - - N/A% 30.45 in 10.0 mi NW 15.0 mph - N/A   Clear
7:55 AM - - N/A% 30.46 in 10.0 mi NW 16.1 mph - N/A   Clear
8:15 AM - - N/A% 30.47 in 10.0 mi NW 13.8 mph 18.4 mph N/A   Clear
8:35 AM - - N/A% 30.47 in 10.0 mi NW 20.7 mph - N/A   Clear
8:55 AM - - N/A% 30.46 in 10.0 mi WNW 23.0 mph 27.6 mph N/A   Clear
9:15 AM - - N/A% 30.45 in 10.0 mi WNW 24.2 mph 27.6 mph N/A   Clear
9:36 AM - - N/A% 30.45 in 10.0 mi NW 25.3 mph - N/A   Clear
9:55 AM - - N/A% 30.45 in 10.0 mi NW 23.0 mph - N/A   Clear
10:14 AM - - N/A% 30.46 in 10.0 mi NW 17.3 mph - N/A   Clear
10:35 AM - - N/A% 30.47 in 10.0 mi NNW 11.5 mph - N/A   Clear
10:55 AM - - N/A% 30.46 in 10.0 mi NNW 10.4 mph - N/A   Clear
11:15 AM - - N/A% 30.45 in 10.0 mi NW 10.4 mph - N/A   Clear
11:34 AM - - N/A% 30.44 in 10.0 mi NW 15.0 mph 20.7 mph N/A   Clear
11:56 AM - - N/A% 30.43 in 10.0 mi WNW 18.4 mph 24.2 mph N/A   Clear
12:15 PM - - N/A% 30.42 in 10.0 mi WNW 13.8 mph 21.9 mph N/A   Clear
12:35 PM - - N/A% 30.42 in 10.0 mi NNW 12.7 mph 19.6 mph N/A   Clear
12:55 PM - - N/A% 30.41 in 10.0 mi North 4.6 mph 19.6 mph N/A   Clear
1:15 PM - - N/A% 30.40 in 10.0 mi NW 16.1 mph 21.9 mph N/A   Clear
1:35 PM - - N/A% 30.39 in 10.0 mi NW 19.6 mph 25.3 mph N/A   Clear
1:56 PM - - N/A% 30.39 in 10.0 mi NW 15.0 mph 20.7 mph N/A   Clear
2:15 PM - - N/A% 30.38 in 10.0 mi WNW 15.0 mph 26.5 mph N/A   Clear
2:35 PM - - N/A% 30.37 in 10.0 mi NW 16.1 mph 27.6 mph N/A   Clear
2:54 PM - - N/A% 30.36 in 10.0 mi NW 15.0 mph 28.8 mph N/A   Clear
3:15 PM - - N/A% 30.35 in 10.0 mi NW 18.4 mph 27.6 mph N/A   Clear
3:36 PM - - N/A% 30.35 in 10.0 mi WNW 17.3 mph 25.3 mph N/A   Clear
3:56 PM - - N/A% 30.35 in 10.0 mi NW 23.0 mph 26.5 mph N/A   Clear
4:15 PM - - N/A% 30.34 in 10.0 mi WNW 19.6 mph 27.6 mph N/A   Clear
4:35 PM - - N/A% 30.35 in 10.0 mi NW 20.7 mph 27.6 mph N/A   Clear
4:55 PM - - N/A% 30.34 in 10.0 mi WNW 21.9 mph 27.6 mph N/A   Clear
5:15 PM - - N/A% 30.34 in 10.0 mi WNW 23.0 mph 27.6 mph N/A   Clear
5:35 PM - - N/A% 30.35 in 10.0 mi NW 19.6 mph 26.5 mph N/A   Clear
5:56 PM - - N/A% 30.35 in 10.0 mi NNW 12.7 mph 18.4 mph N/A   Clear
6:15 PM - - N/A% 30.35 in 10.0 mi NNW 11.5 mph 20.7 mph N/A   Clear
6:35 PM - - N/A% 30.35 in 10.0 mi North 11.5 mph 21.9 mph N/A   Clear
6:56 PM - - N/A% 30.35 in 10.0 mi North 9.2 mph - N/A   Clear
7:15 PM - - N/A% 30.36 in 10.0 mi North 9.2 mph - N/A   Clear
7:35 PM - - N/A% 30.36 in 10.0 mi NW 8.1 mph - N/A   Clear
7:55 PM - - N/A% 30.37 in 10.0 mi NNW 5.8 mph - N/A   Clear
8:15 PM - - N/A% 30.37 in 10.0 mi North 9.2 mph - N/A   Clear
8:35 PM - - N/A% 30.37 in 10.0 mi NNW 8.1 mph - N/A   Clear
8:56 PM - - N/A% 30.37 in 10.0 mi NNW 8.1 mph - N/A   Clear
9:16 PM - - N/A% 30.37 in 10.0 mi NW 13.8 mph - N/A   Clear
9:36 PM - - N/A% 30.36 in 10.0 mi NW 13.8 mph - N/A   Clear
9:55 PM - - N/A% 30.36 in 10.0 mi NW 16.1 mph - N/A   Clear
10:16 PM - - N/A% 30.37 in 10.0 mi NW 13.8 mph - N/A   Clear
10:36 PM - - N/A% 30.37 in 10.0 mi NW 15.0 mph - N/A   Clear
10:56 PM - - N/A% 30.36 in 10.0 mi NW 18.4 mph - N/A   Clear
11:16 PM - - N/A% 30.35 in 10.0 mi NW 19.6 mph - N/A   Clear
11:35 PM - - N/A% 30.35 in 10.0 mi NW 20.7 mph - N/A   Clear
11:56 PM - - N/A% 30.35 in 10.0 mi NW 19.6 mph - N/A   Clear